[[{"header":{"parameterUnit":"m.s-1","parameterCategory":1,"la1":30.2991,"la2":30.254,"lo1":-89.0895,"lo2":-89.0444,"dy":0.0017,"dx":0.0017,"nx":28,"ny":28,"refTime":"2025-12-11T09:00:00:Z","depth":0,"parameterNumber":2,"parameterNumberName":"U-component_of_WINDS"},"data":[0,0,0,0,0,0,0,0,0,0,0,0,0,0,0,0,0,0,0,0,0,0,0,0,0,0,0,0,0,0,0,0,0,0,0,0,0,0,0,0,0,0,0,0,0,0,0,0,0,0,0,0,0,0,0,0,0,0,0.6402,0.6402,0,0.6386,0.6385,0.6385,0.6374,0.6374,0.6374,0.6374,0.6356,0.6355,0.6355,0,0,0,0,0,0,0,0,0,0,0,0,0,0.6422,0.6422,0.6402,0.6402,0.6402,0.6386,0.6385,0.6385,0.6374,0.6374,0.6374,0.6374,0.6356,0.6355,0.6355,0,0,0,0,0,0,0,0,0,0,0,0,0,0.641,0.6422,0.6402,0.6394,0.6393,0.6386,0.6385,0.6385,0.6374,0.6374,0.6374,0.6374,0.6356,0.6355,0.6355,0.6353,0,0,0.6353,0.6353,0,0,0,0,0,0,0,0,0.6411,0.6409,0.6396,0.6395,0.6394,0.6382,0.6386,0.6374,0.6374,0.6381,0.6374,0.6374,0.6364,0.6363,0.636,0.6353,0.6352,0.6353,0.6353,0.6352,0.6352,0,0,0,0,0,0,0,0.6412,0.641,0.6396,0.6396,0.6394,0.6391,0.6389,0.6384,0.6374,0.6381,0.638,0.6378,0.6364,0.6361,0.636,0.6352,0.6353,0.6352,0.6352,0.6352,0.634,0.634,0,0,0,0,0,0,0.6414,0.6411,0.6396,0.6395,0.6402,0.6391,0.6389,0.6386,0.6374,0.6372,0.6378,0.6378,0.6362,0.636,0.6359,0.6355,0.6352,0.6352,0.6351,0.634,0.634,0.634,0,0,0,0,0,0,0.6414,0.6413,0.6397,0.6403,0.64,0.639,0.6387,0.6385,0.6382,0.6372,0.637,0.6377,0.6362,0.636,0.6354,0.6354,0.6351,0.6351,0.6339,0.634,0.634,0.6348,0,0,0,0,0,0,0.6415,0.6413,0.6413,0.6403,0.64,0.6393,0.6387,0.6385,0.6382,0.6381,0.637,0.6368,0.6362,0.6355,0.6354,0.6354,0.635,0.6339,0.6339,0.634,0.6348,0.6349,0.6349,0,0,0,0,0,0.6416,0.6417,0.6413,0.6412,0.64,0.6393,0.6392,0.6384,0.6382,0.6381,0.6374,0.6369,0.6355,0.6355,0.6353,0.6353,0.6339,0.6339,0.634,0.6348,0.6349,0.6349,0,0,0,0,0,0,0.6427,0.6415,0.6411,0.6409,0.6402,0.6392,0.6391,0.6386,0.6379,0.6379,0.6369,0.6367,0.6362,0.6357,0.6357,0.6349,0.6346,0.6346,0.6353,0.6354,0.6355,0.6356,0.635,0,0,0,0,0,0.6429,0.6426,0.6415,0.6414,0.6411,0.6401,0.6398,0.6392,0.6385,0.6382,0.6375,0.6367,0.6361,0.6357,0.6351,0.6347,0.6344,0.6346,0.6346,0.6347,0.6347,0.6342,0.6343,0.634,0.634,0.634,0,0,0.6434,0.6427,0.6425,0.6416,0.641,0.6405,0.6399,0.6395,0.6391,0.6381,0.6376,0.637,0.6361,0.6356,0.6353,0.6351,0.6347,0.6347,0.6348,0.6347,0.6342,0.6343,0.6343,0.634,0.634,0.634,0,0,0.644,0.6434,0.6432,0.6426,0.6417,0.6411,0.641,0.64,0.6395,0.6389,0.6382,0.6376,0.6366,0.636,0.6355,0.6356,0.635,0.6354,0.6357,0.6353,0.6354,0.6354,0.6353,0.6353,0.6354,0.6354,0.6354,0,0.6446,0.6439,0.6431,0.6427,0.6422,0.6414,0.641,0.6405,0.6394,0.6391,0.6389,0.6375,0.6368,0.636,0.636,0.6357,0.6355,0.6355,0.6354,0.6354,0.6354,0.6353,0.6353,0.6354,0.6354,0.6354,0.6354,0,0.6447,0.6442,0.6441,0.6431,0.6426,0.6423,0.6413,0.6409,0.6403,0.6397,0.639,0.6381,0.6372,0.637,0.6365,0.6361,0.636,0.6356,0.6353,0.6355,0.6354,0.6354,0.6355,0.6355,0.6355,0.6355,0,0,0.6461,0.6445,0.6444,0.6439,0.6428,0.6423,0.6418,0.641,0.6406,0.6398,0.6393,0.6384,0.638,0.6374,0.6368,0.6364,0.6364,0.6361,0.6361,0.6361,0.6357,0.636,0.6359,0.636,0.636,0.636,0.6358,0,0.6464,0.6455,0.6447,0.644,0.6435,0.6425,0.6421,0.6413,0.6406,0.64,0.6392,0.6385,0.6381,0.6377,0.6373,0.6365,0.6363,0.6365,0.6354,0.6354,0.6356,0.6359,0.6362,0.636,0.6357,0.6357,0.6357,0,0.6467,0.6459,0.6452,0.644,0.6437,0.6433,0.6424,0.6418,0.6408,0.6403,0.6396,0.6389,0.6382,0.638,0.6369,0.637,0.6365,0.636,0.636,0.6358,0.6355,0.6357,0.636,0.6359,0.6357,0.6357,0.6357,0,0.6475,0.6464,0.6457,0.6453,0.6439,0.6436,0.643,0.642,0.6415,0.6406,0.6402,0.6393,0.6387,0.638,0.637,0.6369,0.6359,0.6356,0.6354,0.6354,0.6353,0.6353,0.6354,0.635,0.635,0.635,0.635,0,0.6479,0.6475,0.6461,0.6457,0.6452,0.6442,0.6436,0.6429,0.642,0.6414,0.6405,0.6399,0.6387,0.6379,0.6371,0.6363,0.6361,0.6356,0.6354,0.6356,0.6357,0.6353,0.6352,0.635,0.635,0.635,0.635,0,0.6488,0.6479,0.6471,0.6458,0.6455,0.6451,0.6439,0.6434,0.6427,0.6419,0.6416,0.6404,0.6394,0.6384,0.6371,0.6365,0.6357,0.6354,0.636,0.6359,0.6357,0.6357,0.6355,0.6354,0.6352,0.6352,0.6352,0,0.6491,0.6488,0.6474,0.6469,0.6463,0.6456,0.645,0.6439,0.6434,0.6421,0.6417,0.6407,0.6398,0.6383,0.6372,0.6362,0.6358,0.6358,0.6357,0.6359,0.6357,0.6357,0.6356,0.6359,0.6359,0.6359,0.6359,0,0.6497,0.6492,0.6484,0.6475,0.6468,0.646,0.6451,0.6447,0.6435,0.6428,0.6418,0.6411,0.6397,0.6387,0.6374,0.6367,0.636,0.6359,0.6358,0.6361,0.6364,0.6361,0.6361,0.6359,0.6359,0.6359,0.6359,0.6359,0.6502,0.6498,0.6487,0.6478,0.6471,0.6462,0.6457,0.6448,0.644,0.6427,0.6421,0.6411,0.6399,0.6382,0.6375,0.6366,0.6364,0.6362,0.6362,0.6362,0.6362,0.6365,0.6364,0.6364,0.6364,0.6364,0.6364,0,0.6507,0.6499,0.6491,0.6479,0.6471,0.6466,0.6455,0.6449,0.6441,0.643,0.6422,0.6409,0.6398,0.6386,0.6374,0.6369,0.6366,0.6366,0.6366,0.6364,0.6365,0.6366,0.6369,0.6369,0.6369,0.6369,0.6369,0.6369,0.6508,0.65,0.6494,0.6481,0.6473,0.6463,0.6458,0.6449,0.6441,0.6428,0.6419,0.6411,0.6399,0.6386,0.6375,0.6372,0.6368,0.6369,0.6365,0.6365,0.6365,0.6364,0.6366,0.6368,0.6368,0.6365,0.6365,0.6365]},{"header":{"parameterUnit":"m.s-1","parameterCategory":1,"la1":30.2991,"la2":30.254,"lo1":-89.0895,"lo2":-89.0444,"dy":0.0017,"dx":0.0017,"nx":28,"ny":28,"refTime":"2025-12-11T09:00:00:Z","depth":0,"parameterNumber":3,"parameterNumberName":"V-component_of_WINDS"},"data":[0,0,0,0,0,0,0,0,0,0,0,0,0,0,0,0,0,0,0,0,0,0,0,0,0,0,0,0,0,0,0,0,0,0,0,0,0,0,0,0,0,0,0,0,0,0,0,0,0,0,0,0,0,0,0,0,0,0,3.6579,3.658,0,3.6645,3.6646,3.6647,3.6595,3.6593,3.6591,3.6589,3.6652,3.6656,3.666,0,0,0,0,0,0,0,0,0,0,0,0,0,3.6402,3.6406,3.6579,3.658,3.6581,3.6645,3.6646,3.6647,3.6595,3.6593,3.659,3.6588,3.6651,3.6655,3.666,0,0,0,0,0,0,0,0,0,0,0,0,0,3.6475,3.6407,3.6579,3.6563,3.6562,3.6645,3.6646,3.6647,3.6596,3.6593,3.6589,3.6586,3.665,3.6655,3.6661,3.6762,0,0,3.6678,3.668,0,0,0,0,0,0,0,0,3.6471,3.6481,3.6564,3.6564,3.6563,3.6609,3.6607,3.6686,3.6597,3.6583,3.6589,3.6585,3.664,3.6646,3.6666,3.6765,3.6767,3.6678,3.6682,3.6684,3.6686,0,0,0,0,0,0,0,3.6466,3.6478,3.6605,3.6566,3.6565,3.655,3.6557,3.6622,3.6629,3.6584,3.658,3.6589,3.6639,3.6661,3.6667,3.6768,3.6678,3.6683,3.6687,3.6689,3.6951,3.6954,0,0,0,0,0,0,3.6463,3.6474,3.6603,3.6607,3.6508,3.6556,3.6564,3.6597,3.6628,3.663,3.6592,3.6587,3.6653,3.6661,3.6669,3.6788,3.6684,3.6689,3.6693,3.6947,3.6952,3.6956,0,0,0,0,0,0,3.6459,3.6475,3.66,3.654,3.6555,3.6563,3.6601,3.66,3.6622,3.6635,3.6635,3.6613,3.665,3.6661,3.6739,3.6789,3.6692,3.6697,3.6943,3.6949,3.6954,3.7028,0,0,0,0,0,0,3.6455,3.6474,3.6514,3.6541,3.6558,3.6671,3.6604,3.6604,3.6632,3.6626,3.6654,3.6656,3.6649,3.6731,3.6744,3.6795,3.6701,3.6939,3.6946,3.6952,3.7021,3.7035,3.7047,0,0,0,0,0,3.6448,3.6532,3.6516,3.6532,3.6609,3.6674,3.6683,3.6675,3.6637,3.6676,3.6683,3.6655,3.6782,3.6739,3.6754,3.6808,3.6935,3.6944,3.6951,3.7015,3.7032,3.7047,0,0,0,0,0,0,3.6509,3.6535,3.6518,3.6613,3.6642,3.6665,3.6714,3.6694,3.6733,3.6725,3.6711,3.6718,3.6799,3.6811,3.6763,3.6906,3.6852,3.6864,3.6895,3.6912,3.6925,3.6919,3.6706,0,0,0,0,0,3.6534,3.6586,3.6605,3.6687,3.6703,3.6706,3.6734,3.6725,3.6754,3.6765,3.6779,3.6806,3.6852,3.6883,3.6926,3.7022,3.7026,3.7066,3.7079,3.709,3.71,3.7149,3.7167,3.6982,3.6982,3.6982,0,0,3.6584,3.6605,3.6639,3.67,3.6721,3.6774,3.6717,3.6776,3.6814,3.6774,3.6848,3.6859,3.6888,3.6976,3.7014,3.6988,3.7152,3.71,3.7109,3.7113,3.716,3.7177,3.7193,3.6987,3.6986,3.6986,0,0,3.6704,3.6726,3.6796,3.6818,3.6851,3.6853,3.687,3.6896,3.6902,3.6977,3.6947,3.6992,3.7072,3.7094,3.7115,3.7242,3.7216,3.7256,3.7324,3.7373,3.7388,3.74,3.7444,3.746,3.7266,3.7266,3.7266,0,3.6763,3.6843,3.6834,3.6895,3.6921,3.6888,3.6957,3.6979,3.7024,3.7042,3.7012,3.7111,3.7129,3.722,3.725,3.727,3.7286,3.7252,3.7387,3.7399,3.7411,3.7452,3.7469,3.7271,3.727,3.727,3.7269,0,3.6912,3.6968,3.702,3.7066,3.7098,3.7163,3.7162,3.7195,3.7183,3.7187,3.7262,3.7282,3.7328,3.7349,3.7337,3.7438,3.742,3.7389,3.7334,3.7433,3.7472,3.7488,3.7277,3.7275,3.7274,3.7273,0,0,3.7072,3.7111,3.713,3.715,3.7183,3.7225,3.7288,3.7334,3.7362,3.7394,3.7444,3.7512,3.7483,3.7507,3.7498,3.7541,3.7637,3.7504,3.7504,3.7526,3.7747,3.7769,3.7788,3.7621,3.7624,3.7626,3.7744,0,3.7192,3.7302,3.7295,3.7398,3.7448,3.7417,3.747,3.7496,3.7501,3.7543,3.7548,3.7596,3.7555,3.7569,3.761,3.7617,3.7681,3.7608,3.7665,3.7668,3.7658,3.7808,3.7832,3.7942,3.7759,3.7761,3.7763,0,3.7347,3.7385,3.7493,3.7518,3.7539,3.7587,3.7628,3.7669,3.7696,3.7697,3.7724,3.7707,3.7767,3.7712,3.7794,3.7745,3.7768,3.7774,3.7778,3.7782,3.7721,3.7815,3.7977,3.7993,3.7787,3.7785,3.7783,0,3.7451,3.7529,3.7603,3.7621,3.7652,3.7687,3.7701,3.7725,3.7752,3.7787,3.7804,3.7846,3.7868,3.7899,3.7893,3.7854,3.7976,3.7921,3.7976,3.7976,3.8003,3.8001,3.817,3.802,3.802,3.8019,3.8019,0,3.7585,3.7652,3.765,3.7696,3.7769,3.7759,3.7831,3.7841,3.7862,3.7908,3.7883,3.7926,3.7915,3.7957,3.7952,3.802,3.803,3.8031,3.8029,3.8033,3.8032,3.8046,3.8038,3.8024,3.8023,3.8022,3.8021,0,3.7713,3.7715,3.7793,3.7816,3.7823,3.7876,3.7895,3.7937,3.794,3.7997,3.801,3.8014,3.8062,3.8059,3.8113,3.811,3.8192,3.8182,3.8184,3.8181,3.8236,3.823,3.8419,3.8442,3.8279,3.828,3.8281,0,3.7798,3.7849,3.7877,3.7906,3.7923,3.797,3.7998,3.799,3.802,3.8054,3.8091,3.8137,3.8173,3.825,3.8257,3.8298,3.8287,3.835,3.8293,3.8295,3.8286,3.8283,3.8287,3.8361,3.8363,3.8364,3.8366,0,3.7948,3.7946,3.7988,3.803,3.8065,3.8097,3.8127,3.8152,3.8146,3.818,3.8229,3.8257,3.8312,3.8357,3.8396,3.8408,3.8386,3.8384,3.8399,3.8402,3.8401,3.8401,3.8213,3.8379,3.8378,3.8377,3.8376,3.8376,3.8056,3.8099,3.8125,3.8172,3.8194,3.8222,3.8262,3.827,3.8311,3.8356,3.8348,3.8403,3.8427,3.8476,3.8492,3.8533,3.851,3.8532,3.8537,3.8543,3.8548,3.8395,3.854,3.854,3.854,3.8539,3.8539,0,3.8203,3.8219,3.8262,3.8305,3.8341,3.8318,3.8349,3.8381,3.8429,3.8454,3.849,3.8546,3.8589,3.8599,3.864,3.8671,3.8661,3.8682,3.8679,3.8682,3.8567,3.855,3.8689,3.8689,3.8689,3.8689,3.8689,3.8689,3.8284,3.8355,3.8356,3.8436,3.8451,3.8505,3.8525,3.8549,3.8569,3.8632,3.8669,3.8675,3.8694,3.8735,3.8773,3.8775,3.879,3.8815,3.8812,3.8705,3.869,3.8676,3.8659,3.8818,3.8819,3.8923,3.8924,3.8924]}]]